Location: Wallasey
(53.4265°N, 3.0662°W)
Time: 12:12:07
(UTC+00:00)

XW-2B - Pass Details

Date: 21 October 2019
Orbit: 508 x 528 km, 97.5° (Epoch: 22 November)

Event Time Altitude Azimuth Distance (km) Brightness Sun altitude
Rises 19:14:10 0° 202° (SSW) 2,636 ? -11.2°
Reaches altitude 10° 19:16:43 10° 221° (SW) 1,750 ? -11.6°
Maximum altitude 19:19:31 20° 269° (W) 1,259 ? -12.0°
Drops below altitude 10° 19:22:19 10° 317° (NW) 1,753 ? -12.4°
Sets 19:24:52 0° 335° (NNW) 2,642 ? -12.8°
